Port Macquarie Airport Observation History
Time Wind Speed Temp Pressure Rel. Hum Rain
03/07:00am W 9-12 kts 10.4°c 1020.0 hPa 59% 0.0mm
03/06:30am W 9-12 kts 10.1°c 1019.6 hPa 60% 0.0mm
03/06:00am W 8-12 kts 10.1°c 1019.2 hPa 60% 0.0mm
03/05:30am W 9-14 kts 10.5°c 1018.9 hPa 58% 0.0mm
03/05:00am W 10-14 kts 10.6°c 1018.7 hPa 58% 0.0mm
03/04:30am W 8-12 kts 10.3°c 1018.4 hPa 60% 0.0mm
03/04:00am WNW 5-8 kts 9.3°c 1018.3 hPa 64% 0.0mm
03/03:30am WNW 6-9 kts 10.6°c 1018.2 hPa 57% 0.0mm
03/03:00am W 9-14 kts 10.8°c 1018.2 hPa 56% 0.0mm
03/02:30am W 10-14 kts 10.9°c 1018.3 hPa 55% 0.0mm
03/02:00am W 10-14 kts 11.3°c 1018.1 hPa 53% 0.0mm
03/01:30am W 11-18 kts 11.4°c 1018.2 hPa 53% 0.0mm
03/01:00am W 10-14 kts 11.0°c 1018.1 hPa 56% 0.0mm
03/12:30am W 8-14 kts 10.9°c 1018.1 hPa 58% 0.0mm
03/12:00am W 7-10 kts 10.9°c 1018.0 hPa 60% 0.0mm
Time Wind Speed Temp Pressure Rel. Hum Rain
02/11:30pm W 8-11 kts 10.7°c 1018.0 hPa 62% 0.0mm
02/11:00pm WNW 9-12 kts 10.7°c 1018.2 hPa 62% 0.0mm
02/10:30pm WNW 7-8 kts 9.3°c 1018.3 hPa 72% 0.0mm
02/10:00pm WSW 2-4 kts 7.0°c 1018.4 hPa 79% 0.0mm
02/09:30pm WSW 1-4 kts 7.7°c 1018.0 hPa 76% 0.0mm
02/09:00pm W 5 kts 10.5°c 1017.6 hPa 61% 0.0mm
02/08:30pm W 5-7 kts 11.7°c 1017.1 hPa 56% 0.0mm
02/08:00pm W 6-9 kts 11.9°c 1016.7 hPa 56% 0.0mm
02/07:30pm W 6-10 kts 11.8°c 1016.3 hPa 56% 0.0mm
02/07:00pm W 8-11 kts 12.0°c 1016.0 hPa 55% 0.0mm
02/06:30pm W 9-12 kts 12.5°c 1015.9 hPa 53% 0.0mm
02/06:00pm W 7-10 kts 12.5°c 1015.6 hPa 54% 0.0mm
02/05:30pm W 6-8 kts 12.9°c 1015.1 hPa 52% 0.0mm
02/05:00pm WNW 8-13 kts 13.8°c 1014.5 hPa 48% 0.0mm
02/04:30pm W 11-18 kts 14.5°c 1014.1 hPa 45% 0.0mm
02/04:00pm W 12-19 kts 15.3°c 1014.0 hPa 43% 0.0mm
02/03:30pm WNW 10-19 kts 15.8°c 1013.5 hPa 42% 0.0mm
02/03:00pm WNW 12-19 kts 16.1°c 1013.0 hPa 41% 0.0mm
02/02:30pm WNW 9-15 kts 16.2°c 1013.2 hPa 41% 0.0mm
02/02:00pm WNW 13-19 kts 16.3°c 1012.9 hPa 42% 0.0mm
02/01:30pm WNW 12-19 kts 15.7°c 1013.1 hPa 43% 0.0mm
02/01:00pm WNW 11-15 kts 15.7°c 1013.7 hPa 43% 0.0mm
02/12:30pm W 12-19 kts 15.3°c 1013.8 hPa 43% 0.0mm
02/12:00pm W 12-21 kts 15.0°c 1014.3 hPa 43% 0.0mm
02/11:30am W 15-22 kts 14.5°c 1015.0 hPa 45% 0.0mm
02/11:19am W 15-25 kts 15.0°c 1014.9 hPa 42% 0.0mm
02/11:00am W 14-21 kts 14.5°c 1015.1 hPa 43% 0.0mm
02/10:30am WNW 12-19 kts 14.1°c 1015.2 hPa 44% 0.0mm
02/10:00am WSW 13-22 kts 13.9°c 1015.7 hPa 46% 0.0mm
02/09:30am W 11-15 kts 13.2°c 1015.9 hPa 46% 0.0mm
02/09:00am WNW 10-15 kts 12.5°c 1015.8 hPa 48% 0.0mm
02/08:30am NW 5-8 kts 11.5°c 1015.8 hPa 57% 0.0mm
02/08:00am CALM 0 kts 11.3°c 1015.9 hPa 56% 0.0mm
02/07:30am WNW 4-5 kts 9.3°c 1015.4 hPa 63% 0.0mm
02/07:00am W 6-8 kts 9.2°c 1015.2 hPa 59% 0.0mm
02/06:30am W 6-7 kts 7.1°c 1015.1 hPa 74% 0.0mm
02/06:00am WSW 4-5 kts 5.1°c 1015.1 hPa 78% 0.0mm
02/05:30am WNW 5-6 kts 7.1°c 1014.7 hPa 72% 0.0mm
02/05:00am W 5-6 kts 8.9°c 1014.1 hPa 61% 0.0mm
02/04:30am WSW 7-8 kts 9.8°c 1013.9 hPa 60% 0.0mm
02/04:00am SW 6-8 kts 9.8°c 1013.8 hPa 62% 0.0mm
02/03:30am SW 8-11 kts 11.1°c 1013.9 hPa 57% 0.0mm
02/03:00am SW 7-9 kts 11.1°c 1013.7 hPa 58% 0.0mm
02/02:30am WSW 6-9 kts 12.6°c 1013.6 hPa 50% 0.0mm
02/02:00am WSW 9-13 kts 14.3°c 1013.5 hPa 42% 0.0mm
02/01:30am SW 7-9 kts 13.4°c 1013.3 hPa 50% 0.0mm
02/01:00am WSW 10-15 kts 14.4°c 1013.3 hPa 48% 0.0mm
02/12:30am W 13-19 kts 15.1°c 1013.1 hPa 48% 0.0mm
02/12:00am WSW 12-17 kts 15.3°c 1012.8 hPa 53% 0.0mm
Time Wind Speed Temp Pressure Rel. Hum Rain
01/11:30pm WSW 10-15 kts 15.4°c 1012.5 hPa 54% 0.0mm
01/11:00pm W 9-11 kts 17.0°c 1012.2 hPa 47% 0.0mm
01/10:30pm W 9-12 kts 17.5°c 1012.1 hPa 47% 0.0mm
01/10:00pm W 8-11 kts 16.7°c 1011.5 hPa 56% 0.0mm
01/09:30pm WSW 4-6 kts 14.1°c 1011.2 hPa 79% 0.0mm
01/09:00pm NW 2-8 kts 14.2°c 1011.0 hPa 88% 0.0mm
01/08:30pm N 1-5 kts 14.2°c 1010.4 hPa 87% 0.0mm
01/08:00pm NW 3-5 kts 14.8°c 1010.4 hPa 78% 0.0mm
01/07:30pm NNW 4-5 kts 16.3°c 1010.2 hPa 75% 0.0mm
01/07:00pm NW 3-5 kts 16.4°c 1010.1 hPa 74% 0.0mm
01/06:30pm N 4-7 kts 16.8°c 1010.2 hPa 72% 0.0mm
01/06:00pm N 7-10 kts 17.2°c 1009.7 hPa 71% 0.0mm
01/05:30pm N 7-13 kts 18.2°c 1009.5 hPa 66% 0.0mm
01/05:00pm N 11-14 kts 18.6°c 1008.7 hPa 63% 0.0mm
01/04:30pm N 12-16 kts 20.2°c 1008.3 hPa 63% 0.0mm
01/04:00pm N 9-13 kts 21.5°c 1008.8 hPa 61% 0.0mm
01/03:30pm NNE 8-10 kts 22.0°c 1008.9 hPa 59% 0.0mm
01/03:00pm NNE 8-10 kts 22.1°c 1009.0 hPa 58% 0.0mm
01/02:30pm NNE 10-13 kts 22.4°c 1009.2 hPa 53% 0.0mm
01/02:00pm NE 9-13 kts 21.7°c 1009.5 hPa 59% 0.0mm
01/01:30pm NNE 6-9 kts 21.1°c 1010.1 hPa 57% 0.0mm
01/01:00pm NE 5-7 kts 19.8°c 1010.7 hPa 63% 0.0mm
01/12:30pm NNE 5-7 kts 19.5°c 1011.2 hPa 65% 0.0mm
01/12:00pm NNE 5-7 kts 18.1°c 1011.7 hPa 72% 0.0mm
01/11:30am NNE 5-7 kts 17.4°c 1012.3 hPa 72% 0.0mm
01/11:00am NNE 9-11 kts 17.6°c 1012.8 hPa 68% 0.0mm
01/10:30am N 7-8 kts 17.9°c 1013.3 hPa 68% 0.0mm
01/10:00am N 7-8 kts 18.6°c 1013.6 hPa 68% 0.0mm
01/09:30am N 6-10 kts 18.3°c 1013.9 hPa 76% 0.0mm
01/09:00am CALM 0 kts 15.0°c 1014.1 hPa 91% 0.2mm
01/08:30am CALM 0 kts 13.6°c 1014.5 hPa 92% 0.2mm
01/08:00am WNW 1-4 kts 12.3°c 1014.5 hPa 97% 0.2mm
01/07:30am WSW 2-4 kts 11.5°c 1014.5 hPa 98% 0.2mm
01/07:00am N 1-4 kts 11.5°c 1014.4 hPa 97% 0.2mm
01/06:30am NW 5-6 kts 11.6°c 1014.3 hPa 98% 0.2mm
01/06:00am NNW 5-7 kts 11.2°c 1014.4 hPa 98% 0.2mm
01/05:30am NW 3-4 kts 11.2°c 1014.3 hPa 98% 0.2mm
01/05:00am NNW 3-5 kts 11.5°c 1014.2 hPa 99% 0.2mm
01/04:30am N 5-6 kts 11.9°c 1014.3 hPa 98% 0.2mm
01/04:00am NNW 5-6 kts 11.6°c 1014.4 hPa 97% 0.2mm
01/03:30am NNW 5-6 kts 11.2°c 1014.7 hPa 98% 0.2mm
01/03:00am NW 4-5 kts 10.7°c 1015.1 hPa 97% 0.2mm
01/02:30am NW 4 kts 10.8°c 1015.5 hPa 97% 0.2mm
01/02:00am NW 5-6 kts 11.1°c 1015.8 hPa 98% 0.2mm
01/01:30am NW 3-4 kts 11.6°c 1015.9 hPa 99% 0.2mm
01/01:00am N 4-5 kts 11.3°c 1016.2 hPa 98% 0.0mm
01/12:30am N 4-5 kts 12.4°c 1016.5 hPa 99% 0.0mm
01/12:00am NW 3-5 kts 11.3°c 1016.5 hPa 96% 0.0mm